FW9243 Weather Reports


time (UTC)temp
F
wind
direction
speed
knots
gust
knots
rain 1hr
in
rain 24hr
in
rain mn
in
humidity
%
barometer
mb
20260902092803 62 209 0.9 1.7 0.00 0.00 0.00 95 1023.1
20260902092729 62 269 0.9 1.7 0.00 0.00 0.00 95 1023.8
20260902092305 62 221 0.9 1.7 0.00 0.00 0.00 96 1023.1
20260902092230 62 206 0.9 1.7 0.00 0.00 0.00 96 1023.7
20260902091730 62 231 0.9 1.7 0.00 0.00 0.00 96 1023.8
20260902091542 55 282 0.9 1.7 0.00 0.00 0.00 100 1024.4
20260902091303 61 1 0.9 1.7 0.00 0.00 0.00 96 1023.1
20260902091230 61 1 0.9 1.7 0.00 0.00 0.00 96 1023.7
20260902090803 61 224 0.9 1.7 0.00 0.00 0.00 96 1023.0
20260902090730 61 241 0.9 1.7 0.00 0.00 0.00 96 1023.7
20260902090302 60 34 0.9 1.7 0.00 0.00 0.00 96 1023.0
20260902090229 60 56 0.9 1.7 0.00 0.00 0.00 96 1023.7
20260902090043 55 250 0.9 1.7 0.00 0.00 0.00 100 1024.3
20260902085803 60 211 0.9 1.7 0.00 0.00 0.00 96 1023.1
20260902085729 60 45 0.9 1.7 0.00 0.00 0.00 96 1023.7
20260902085229 59 45 0.9 1.7 0.00 0.00 0.00 96 1023.6
20260902084956 59 269 0.9 1.7 0.00 0.00 0.00 96 1023.8
20260902084803 59 251 0.9 1.7 0.00 0.00 0.00 96 1023.0
20260902084549 55 9 0.0 1.7 0.00 0.00 0.00 100 1024.3
20260902084229 59 314 0.9 1.7 0.00 0.00 0.00 96 1023.8
20260902083803 59 234 0.9 1.7 0.00 0.00 0.00 96 1022.9
20260902083728 59 269 0.9 1.7 0.00 0.00 0.00 96 1023.6
20260902083303 58 230 0.9 1.7 0.00 0.00 0.00 96 1023.0
20260902083229 58 223 0.9 1.7 0.00 0.00 0.00 96 1023.6
20260902083043 55 0 0.0 0.9 0.00 0.00 0.00 100 1024.2
20260902082802 58 214 0.9 0.9 0.00 0.00 0.00 96 1022.9
20260902082728 58 178 0.9 1.7 0.00 0.00 0.00 96 1023.5
20260902082308 58 242 0.9 1.7 0.00 0.00 0.00 96 1022.8
20260902082228 58 231 0.9 1.7 0.00 0.00 0.00 96 1023.4
20260902081803 58 241 0.9 1.7 0.00 0.00 0.00 96 1022.8
20260902081728 58 269 0.9 1.7 0.00 0.00 0.00 96 1023.5
20260902081545 55 273 0.9 0.9 0.00 0.00 0.00 100 1024.0
20260902081303 58 233 0.9 1.7 0.00 0.00 0.00 96 1022.7
20260902081228 58 269 0.9 1.7 0.00 0.00 0.00 96 1023.4
20260902080945 57 314 0.9 1.7 0.00 0.00 0.00 96 1023.2
20260902080803 57 269 0.9 1.7 0.00 0.00 0.00 96 1022.6
20260902080303 57 246 0.0 1.7 0.00 0.00 0.00 96 1022.5
20260902080228 57 206 0.0 1.7 0.00 0.00 0.00 96 1023.2
20260902080042 55 0 0.0 0.9 0.00 0.00 0.00 100 1023.8
20260902075803 57 346 0.9 1.7 0.00 0.00 0.00 96 1022.6
20260902075727 57 1 0.9 1.7 0.00 0.00 0.00 96 1023.2
20260902075306 57 230 0.9 1.7 0.00 0.00 0.00 96 1022.5
20260902075228 57 223 0.9 1.7 0.00 0.00 0.00 96 1023.1
20260902074802 56 214 0.9 1.7 0.00 0.00 0.00 96 1022.4
20260902074726 56 223 0.9 1.7 0.00 0.00 0.00 96 1023.1
20260902074556 55 0 0.0 0.9 0.00 0.00 0.00 100 1023.6
20260902074449 56 269 0.0 0.9 0.00 0.00 0.00 96 1023.0
20260902074303 56 194 0.9 0.9 0.00 0.00 0.00 96 1022.3
20260902073944 56 283 0.0 0.9 0.00 0.00 0.00 96 1023.0
20260902073303 56 211 0.0 1.7 0.00 0.00 0.00 96 1022.2
20260902073227 56 89 0.0 0.9 0.00 0.00 0.00 95 1022.9
20260902073040 55 126 0.0 1.7 0.00 0.00 0.00 100 1023.5
20260902072803 56 168 0.0 0.9 0.00 0.00 0.00 95 1022.3
20260902072726 56 206 0.9 1.7 0.00 0.00 0.00 95 1022.9
20260902072309 56 220 0.0 1.7 0.00 0.00 0.00 95 1022.2
20260902072227 56 223 0.0 1.7 0.00 0.00 0.00 95 1022.9
20260902071803 56 150 0.9 1.7 0.00 0.00 0.00 95 1022.2
20260902071726 56 124 0.9 1.7 0.00 0.00 0.00 95 1022.9
20260902071542 55 0 0.0 0.9 0.00 0.00 0.00 100 1023.5
20260902071453 55 28 0.9 1.7 0.00 0.00 0.00 95 1022.9
20260902071303 55 160 0.9 1.7 0.00 0.00 0.00 95 1022.2
20260902070803 55 164 0.0 0.9 0.00 0.00 0.00 95 1022.2
20260902070726 55 269 0.0 0.9 0.00 0.00 0.00 95 1022.7
20260902070452 55 251 0.0 0.9 0.00 0.00 0.00 95 1022.7
20260902070044 55 0 0.0 0.9 0.00 0.00 0.00 100 1023.4
20260902065947 55 269 0.0 0.9 0.00 0.00 0.00 95 1022.5
20260902065804 55 336 0.0 0.9 0.00 0.00 0.00 95 1022.0
20260902065306 55 120 0.0 0.9 0.00 0.00 0.00 95 1021.9
20260902065227 55 223 0.0 0.9 0.00 0.00 0.00 95 1022.5
20260902064803 55 320 0.0 0.9 0.00 0.00 0.00 95 1021.8
20260902064725 55 331 0.0 0.9 0.00 0.00 0.00 95 1022.4
20260902064550 59 0 0.9 0.9 0.00 0.00 0.00 100 1023.0
20260902064303 55 252 0.0 0.9 0.00 0.00 0.00 95 1021.7
20260902064226 55 16 0.0 0.9 0.00 0.00 0.00 95 1022.2
20260902063803 55 262 0.0 0.9 0.00 0.00 0.00 95 1021.7
20260902063725 55 45 0.0 0.9 0.00 0.00 0.00 95 1022.3
20260902063303 55 234 0.0 0.9 0.00 0.00 0.00 94 1021.8
20260902063226 55 89 0.0 0.9 0.00 0.00 0.00 94 1022.2
20260902063043 59 178 0.0 0.9 0.00 0.00 0.00 100 1023.0
20260902062803 55 231 0.0 0.9 0.00 0.00 0.00 94 1021.8
20260902062725 55 314 0.0 0.9 0.00 0.00 0.00 94 1022.3
20260902062305 55 195 0.0 0.9 0.00 0.00 0.00 94 1021.8
20260902062227 55 178 0.0 0.9 0.00 0.00 0.00 94 1022.3
20260902061948 55 35 0.0 0.9 0.00 0.00 0.00 94 1022.2
20260902061804 55 190 0.0 0.9 0.00 0.00 0.00 94 1021.7
20260902061557 59 0 0.0 0.9 0.00 0.00 0.00 100 1022.9
20260902061302 55 256 0.0 0.9 0.00 0.00 0.00 94 1021.7
20260902061227 55 89 0.0 0.9 0.00 0.00 0.00 94 1022.2
20260902060949 55 45 0.0 0.9 0.00 0.00 0.00 94 1022.2
20260902060803 55 221 0.0 0.9 0.00 0.00 0.00 94 1021.7
20260902060303 55 225 0.0 0.9 0.00 0.00 0.00 94 1021.7
20260902060225 55 241 0.0 0.9 0.00 0.00 0.00 94 1022.1
20260902060055 59 0 0.0 0.9 0.00 0.00 0.00 100 1022.8
20260902055724 55 206 0.0 0.9 0.00 0.00 0.00 94 1022.0
20260902055306 55 32 0.0 0.9 0.00 0.00 0.00 94 1021.6
20260902055227 55 63 0.0 0.9 0.00 0.00 0.00 94 1022.1
20260902054955 55 223 0.0 0.9 0.00 0.00 0.00 94 1022.1
20260902054804 55 250 0.0 0.9 0.00 0.00 0.00 94 1021.6
20260902054600 59 0 0.0 0.9 0.00 0.00 0.00 100 1022.7
20260902054304 55 255 0.0 0.9 0.00 0.00 0.00 94 1021.6
20260902054227 55 314 0.0 0.9 0.00 0.00 0.00 94 1022.1
20260902053723 55 206 0.0 0.9 0.00 0.00 0.00 94 1022.0
20260902053227 55 178 0.0 0.9 0.00 0.00 0.00 94 1022.1
20260902053100 59 0 0.0 0.9 0.00 0.00 0.00 100 1022.6
20260902052803 55 200 0.0 0.9 0.00 0.00 0.00 94 1021.5
20260902052723 55 206 0.0 0.9 0.00 0.00 0.00 94 1022.0
20260902052712 55 178 0.0 0.9 0.00 0.00 0.00 94 1022.0
20260902052429 55 178 0.0 0.9 0.00 0.00 0.00 94 1021.9
20260902052306 55 170 0.0 0.9 0.00 0.00 0.00 94 1021.5
20260902051803 55 196 0.0 0.9 0.00 0.00 0.00 94 1021.5
20260902051546 59 221 0.0 0.9 0.00 0.00 0.00 100 1022.7
20260902051303 55 222 0.0 0.9 0.00 0.00 0.00 94 1021.5
20260902051227 55 223 0.0 0.9 0.00 0.00 0.00 94 1022.0
20260902050803 55 184 0.0 0.9 0.00 0.00 0.00 94 1021.5
20260902050724 55 45 0.0 0.9 0.00 0.00 0.00 94 1022.0
20260902050451 56 206 0.0 0.9 0.00 0.00 0.00 94 1021.9
20260902050304 55 227 0.0 0.9 0.00 0.00 0.00 94 1021.4
20260902050042 59 0 0.0 0.9 0.00 0.00 0.00 100 1022.5
20260902045803 56 241 0.0 0.9 0.00 0.00 0.00 94 1021.4
20260902045723 56 241 0.0 0.9 0.00 0.00 0.00 94 1021.9
20260902045306 56 154 0.0 0.9 0.00 0.00 0.00 94 1021.4
20260902045226 56 45 0.0 0.9 0.00 0.00 0.00 94 1021.8
20260902044803 56 186 0.0 0.9 0.00 0.00 0.00 94 1021.4
20260902044723 56 1 0.0 0.9 0.00 0.00 0.00 94 1021.8
20260902044543 59 0 0.0 0.0 0.00 0.00 0.00 100 1022.5
20260902044303 56 146 0.0 0.9 0.00 0.00 0.00 94 1021.4
20260902044226 56 178 0.0 0.9 0.00 0.00 0.00 94 1021.8
20260902043803 56 337 0.0 1.7 0.00 0.00 0.00 94 1021.4
20260902043722 56 45 0.0 0.9 0.00 0.00 0.00 94 1021.7
20260902043303 56 170 0.9 1.7 0.00 0.00 0.00 94 1021.3
20260902043225 56 197 0.9 0.9 0.00 0.00 0.00 94 1021.7
20260902043049 59 221 0.0 0.9 0.00 0.00 0.00 100 1022.3
20260902042803 56 138 0.0 0.9 0.00 0.00 0.00 94 1021.4
20260902042722 56 45 0.0 0.9 0.00 0.00 0.00 94 1021.8
20260902042308 56 354 0.0 0.9 0.00 0.00 0.00 94 1021.4
20260902042226 56 269 0.0 0.9 0.00 0.00 0.00 94 1021.8
20260902041804 56 278 0.0 0.9 0.00 0.00 0.00 94 1021.4
20260902041721 56 45 0.0 0.9 0.00 0.00 0.00 94 1021.8
20260902041546 59 0 0.0 0.9 0.00 0.00 0.00 100 1022.4
20260902041303 56 195 0.0 0.9 0.00 0.00 0.00 94 1021.4
20260902041225 56 206 0.0 0.9 0.00 0.00 0.00 94 1021.8
20260902040803 57 187 0.0 0.9 0.00 0.00 0.00 94 1021.3
20260902040722 57 178 0.0 0.9 0.00 0.00 0.00 94 1021.8
20260902040303 57 206 0.0 0.9 0.00 0.00 0.00 94 1021.3
20260902040226 57 178 0.0 1.7 0.00 0.00 0.00 94 1021.8
20260902040049 59 0 0.0 0.9 0.00 0.00 0.00 100 1022.4
20260902035803 57 186 0.0 0.9 0.00 0.00 0.00 94 1021.4
20260902035721 57 178 0.9 1.7 0.00 0.00 0.00 94 1021.8
20260902035231 57 145 0.9 0.9 0.00 0.00 0.00 94 1021.8
20260902034803 57 223 0.0 0.9 0.00 0.00 0.00 94 1021.4
20260902034721 57 223 0.0 1.7 0.00 0.00 0.00 94 1021.8
20260902034542 59 0 0.0 1.7 0.00 0.00 0.00 100 1022.4
20260902034303 57 185 0.0 0.9 0.00 0.00 0.00 94 1021.5
20260902034228 57 178 0.0 1.7 0.00 0.00 0.00 94 1021.9
20260902033803 57 166 0.9 1.7 0.00 0.00 0.00 94 1021.5
20260902033720 57 161 0.9 1.7 0.00 0.00 0.00 94 1021.9
20260902033303 57 163 0.9 0.9 0.00 0.00 0.00 93 1021.5
20260902033229 57 152 0.9 0.9 0.00 0.00 0.00 93 1021.9
20260902033044 59 0 0.0 0.9 0.00 0.00 0.00 100 1022.5
20260902032722 57 178 0.0 0.9 0.00 0.00 0.00 93 1022.0
20260902032306 57 272 0.0 0.9 0.00 0.00 0.00 93 1021.6
20260902032226 57 45 0.0 0.9 0.00 0.00 0.00 93 1022.0
20260902031803 57 119 0.0 0.9 0.00 0.00 0.00 93 1021.6
20260902031722 57 178 0.0 0.9 0.00 0.00 0.00 93 1022.1
20260902031547 59 0 0.0 0.9 0.00 0.00 0.00 100 1022.6
20260902031303 57 241 0.0 0.9 0.00 0.00 0.00 93 1021.6
20260902031223 57 178 0.0 0.9 0.00 0.00 0.00 93 1022.0
20260902030803 57 236 0.0 0.9 0.00 0.00 0.00 93 1021.7
20260902030721 57 206 0.0 0.9 0.00 0.00 0.00 93 1022.0
20260902030304 57 246 0.0 0.9 0.00 0.00 0.00 93 1021.7
20260902030226 57 45 0.0 0.9 0.00 0.00 0.00 93 1022.1
20260902030050 59 0 0.0 0.0 0.00 0.00 0.00 100 1022.6
20260902025803 57 152 0.0 0.9 0.00 0.00 0.00 93 1021.7
20260902025721 57 45 0.0 0.9 0.00 0.00 0.00 93 1022.0
20260902025306 58 146 0.0 0.9 0.00 0.00 0.00 93 1021.6
20260902025225 58 223 0.0 0.9 0.00 0.00 0.00 93 1021.9
20260902024803 58 43 0.0 0.9 0.00 0.00 0.00 93 1021.7
20260902024720 58 45 0.0 0.9 0.00 0.00 0.00 93 1022.0
20260902024543 59 0 0.0 0.9 0.00 0.00 0.00 100 1022.6
20260902024303 58 118 0.0 0.9 0.00 0.00 0.00 93 1021.7
20260902024223 58 314 0.0 0.9 0.00 0.00 0.00 93 1022.0
20260902023720 58 72 0.0 0.9 0.00 0.00 0.00 93 1022.1
20260902023303 58 145 0.0 0.9 0.00 0.00 0.00 93 1021.7
20260902023233 58 45 0.0 0.9 0.00 0.00 0.00 93 1022.1
20260902023103 59 0 0.0 0.9 0.00 0.00 0.00 100 1022.7
20260902022803 58 280 0.0 0.9 0.00 0.00 0.00 93 1021.6
20260902022720 58 1 0.0 0.9 0.00 0.00 0.00 93 1022.0
20260902022306 58 226 0.0 0.9 0.00 0.00 0.00 93 1021.8
20260902022222 58 223 0.0 0.9 0.00 0.00 0.00 93 1022.0
20260902021803 58 230 0.0 0.9 0.00 0.00 0.00 93 1021.8
20260902021720 58 213 0.0 0.9 0.00 0.00 0.00 93 1022.1
20260902021543 59 0 0.0 0.9 0.00 0.00 0.00 100 1022.7
20260902021303 59 212 0.9 0.9 0.00 0.00 0.00 93 1021.7
20260902021223 59 223 0.9 0.9 0.00 0.00 0.00 93 1022.0
20260902020719 59 206 0.0 0.9 0.00 0.00 0.00 93 1022.1
20260902020506 59 1 0.0 0.9 0.00 0.00 0.00 93 1022.0
20260902020303 59 188 0.9 0.9 0.00 0.00 0.00 93 1021.6
20260902020045 59 137 0.0 0.9 0.00 0.00 0.00 100 1022.6
20260902015957 59 178 0.0 0.9 0.00 0.00 0.00 93 1022.1
20260902015803 59 195 0.0 0.9 0.00 0.00 0.00 93 1021.6
20260902015305 59 260 0.0 0.9 0.00 0.00 0.00 93 1021.7
20260902015224 59 1 0.0 0.9 0.00 0.00 0.00 93 1022.1
20260902014803 59 40 0.0 0.9 0.00 0.00 0.00 93 1021.7
20260902014730 59 45 0.0 0.9 0.00 0.00 0.00 93 1022.1
20260902014722 59 45 0.0 0.9 0.00 0.00 0.00 93 1022.2
20260902014538 59 0 0.0 0.0 0.00 0.00 0.00 100 1022.7
20260902014303 59 104 0.0 0.9 0.00 0.00 0.00 93 1021.8
20260902013803 60 16 0.0 0.9 0.00 0.00 0.00 93 1021.8
20260902013719 60 314 0.0 0.9 0.00 0.00 0.00 93 1022.1
20260902013303 60 329 0.0 0.9 0.00 0.00 0.00 93 1021.8
20260902013222 60 269 0.0 0.9 0.00 0.00 0.00 93 1022.1
20260902013053 59 0 0.0 0.9 0.00 0.00 0.00 100 1022.7
20260902012803 60 225 0.0 0.9 0.00 0.00 0.00 93 1021.7
20260902012718 60 269 0.9 0.9 0.00 0.00 0.00 93 1022.1
20260902012308 60 243 0.0 0.9 0.00 0.00 0.00 93 1021.8
20260902012221 60 223 0.0 0.9 0.00 0.00 0.00 93 1022.2
20260902011803 60 180 0.0 0.9 0.00 0.00 0.00 93 1021.8
20260902011718 60 178 0.0 0.9 0.00 0.00 0.00 93 1022.2
20260902011544 60 0 0.0 0.9 0.00 0.00 0.00 100 1022.8
20260902011221 60 206 0.0 1.7 0.00 0.00 0.00 94 1022.1
20260902010803 60 171 0.9 1.7 0.00 0.00 0.00 93 1021.6
20260902010718 60 178 0.9 1.7 0.00 0.00 0.00 93 1021.9
20260902010303 60 157 0.9 1.7 0.00 0.00 0.00 93 1021.6
20260902010228 60 152 0.9 0.9 0.00 0.00 0.00 93 1022.1
20260902010038 60 221 0.0 0.9 0.00 0.00 0.00 100 1022.7
20260902005803 60 199 0.0 0.9 0.00 0.00 0.00 93 1021.7
20260902005718 60 117 0.0 0.9 0.00 0.00 0.00 93 1022.1
20260902005224 60 178 0.0 0.9 0.00 0.00 0.00 93 1022.1
20260902004803 60 171 0.0 0.9 0.00 0.00 0.00 93 1021.8
20260902004717 60 178 0.9 0.9 0.00 0.00 0.00 93 1022.2
20260902004550 68 0 0.0 0.9 0.00 0.00 0.00 100 1022.8
20260902004303 60 159 0.0 0.9 0.00 0.00 0.00 93 1021.8
20260902004223 60 135 0.9 0.9 0.00 0.00 0.00 92 1022.1
20260902003716 60 135 0.9 0.9 0.00 0.00 0.00 92 1022.2
20260902003303 60 185 0.0 0.9 0.00 0.00 0.00 92 1021.7
20260902003221 60 178 0.0 0.9 0.00 0.00 0.00 92 1022.1
20260902003048 68 0 0.0 0.9 0.00 0.00 0.00 100 1022.8
20260902002716 60 45 0.0 0.9 0.00 0.00 0.00 92 1022.2
20260902002306 60 124 0.0 0.9 0.00 0.00 0.00 92 1021.7
20260902002220 60 89 0.0 0.9 0.00 0.00 0.00 92 1022.2
20260902001803 61 348 0.0 0.9 0.00 0.00 0.00 92 1021.7
20260902001716 61 314 0.0 0.9 0.00 0.00 0.00 92 1022.1
20260902001559 68 0 0.0 0.9 0.00 0.00 0.00 100 1022.8
20260902001303 61 20 0.0 0.9 0.00 0.00 0.00 92 1021.6
20260902001220 61 269 0.0 0.9 0.00 0.00 0.00 92 1022.1
20260902000803 61 198 0.0 0.9 0.00 0.00 0.00 92 1021.7
20260902000717 61 269 0.0 0.9 0.00 0.00 0.00 92 1022.1
20260902000437 61 269 0.0 0.9 0.00 0.00 0.00 91 1022.1
20260902000421 61 89 0.0 0.9 0.00 0.00 0.00 91 1022.1
20260902000304 61 104 0.0 0.9 0.00 0.00 0.00 92 1021.7
20260902000045 68 9 0.0 0.9 0.00 0.00 0.00 100 1022.6
20260901235803 61 285 0.0 0.9 0.00 0.00 0.00 91 1021.6
20260901235307 61 211 0.0 0.9 0.00 0.00 0.00 91 1021.6
20260901235210 61 223 0.0 0.9 0.00 0.00 0.00 91 1022.1
20260901234803 61 51 0.0 0.9 0.00 0.00 0.00 91 1021.5
20260901234708 61 45 0.0 0.9 0.00 0.00 0.00 91 1022.1
20260901234541 68 0 0.0 0.9 0.00 0.00 0.00 100 1022.7
20260901234303 61 274 0.0 0.9 0.00 0.00 0.00 91 1021.6
20260901234208 61 45 0.0 0.9 0.00 0.00 0.00 91 1022.0
20260901233803 61 255 0.0 0.9 0.00 0.00 0.00 91 1021.6
20260901233705 62 331 0.0 0.9 0.00 0.00 0.00 91 1022.1
20260901233303 62 40 0.0 0.9 0.00 0.00 0.00 91 1021.5
20260901233202 62 45 0.0 0.9 0.00 0.00 0.00 92 1022.0
20260901233045 68 0 0.0 0.9 0.00 0.00 0.00 100 1022.6
20260901232803 62 355 0.0 0.9 0.00 0.00 0.00 92 1021.5
20260901232703 62 269 0.0 0.9 0.00 0.00 0.00 91 1021.8
20260901232205 62 223 0.0 0.9 0.00 0.00 0.00 92 1021.9
20260901231803 62 164 0.9 1.7 0.00 0.00 0.00 91 1021.4
20260901231702 62 152 0.9 1.7 0.00 0.00 0.00 91 1021.8
20260901231545 68 153 0.0 0.9 0.00 0.00 0.00 100 1022.5
20260901231303 62 158 0.9 1.7 0.00 0.00 0.00 91 1021.4
20260901231202 62 145 0.9 1.7 0.00 0.00 0.00 91 1021.9
20260901230803 62 169 0.0 0.9 0.00 0.00 0.00 91 1021.4
20260901230702 62 178 0.0 0.9 0.00 0.00 0.00 91 1021.8
20260901230304 62 207 0.0 0.9 0.00 0.00 0.00 91 1021.4
20260901230202 62 178 0.0 1.7 0.00 0.00 0.00 91 1022.0
20260901230041 68 0 0.0 0.9 0.00 0.00 0.00 100 1022.5
20260901225803 62 253 0.9 1.7 0.00 0.00 0.00 91 1021.4
20260901225703 62 223 0.9 1.7 0.00 0.00 0.00 91 1021.9
20260901225202 62 45 0.9 0.9 0.00 0.00 0.00 91 1022.0
20260901224803 63 172 0.9 0.9 0.00 0.00 0.00 91 1021.5
20260901224703 63 178 0.0 0.9 0.00 0.00 0.00 91 1022.0
20260901224550 68 0 0.0 0.9 0.00 0.00 0.00 100 1022.6
20260901224303 63 220 0.0 0.9 0.00 0.00 0.00 91 1021.5
20260901224202 63 269 0.0 1.7 0.00 0.00 0.00 91 1021.9
20260901223803 63 172 0.9 1.7 0.00 0.00 0.00 91 1021.4
20260901223702 63 178 0.9 1.7 0.00 0.00 0.00 91 1022.0
20260901223303 63 185 0.0 0.9 0.00 0.00 0.00 90 1021.5
20260901223202 63 152 0.9 0.9 0.00 0.00 0.00 90 1022.0
20260901223049 68 178 0.0 0.9 0.00 0.00 0.00 100 1022.6
20260901222926 63 223 0.9 0.9 0.00 0.00 0.00 90 1022.0
20260901222803 63 186 0.9 0.9 0.00 0.00 0.00 90 1021.6
20260901222306 63 218 0.0 0.9 0.00 0.00 0.00 90 1021.6
20260901222202 63 178 0.0 1.7 0.00 0.00 0.00 90 1022.1
20260901221803 63 75 0.0 0.9 0.00 0.00 0.00 90 1021.6
20260901221702 63 45 0.9 1.7 0.00 0.00 0.00 90 1022.1
20260901221556 68 0 0.0 1.7 0.00 0.00 0.00 100 1022.7
20260901221303 63 178 0.9 1.7 0.00 0.00 0.00 90 1021.6
20260901221203 63 178 0.9 1.7 0.00 0.00 0.00 91 1022.1
20260901220933 63 223 0.9 1.7 0.00 0.00 0.00 90 1022.1
20260901220803 63 166 0.9 1.7 0.00 0.00 0.00 90 1021.6
20260901220203 64 223 0.0 1.7 0.00 0.00 0.00 90 1022.1
20260901220056 68 265 0.0 0.9 0.00 0.00 0.00 100 1022.7
20260901215803 64 165 0.9 1.7 0.00 0.00 0.00 90 1021.5
20260901215703 64 168 0.0 1.7 0.00 0.00 0.00 90 1022.1
20260901215204 64 145 0.0 1.7 0.00 0.00 0.00 90 1022.1
20260901214702 64 178 0.0 1.7 0.00 0.00 0.00 90 1022.1
20260901214546 68 178 0.0 0.9 0.00 0.00 0.00 100 1022.8
20260901214303 64 168 0.9 0.9 0.00 0.00 0.00 89 1021.7
20260901214203 64 178 0.9 0.9 0.00 0.00 0.00 89 1022.2
20260901213803 64 234 0.0 0.9 0.00 0.00 0.00 89 1021.7
20260901213702 64 269 0.0 0.9 0.00 0.00 0.00 89 1022.3
20260901213433 64 223 0.0 1.7 0.00 0.00 0.00 89 1022.3
20260901213303 64 223 0.0 0.9 0.00 0.00 0.00 89 1021.8
20260901213044 68 0 0.0 0.9 0.00 0.00 0.00 100 1022.9
20260901212802 64 204 0.0 1.7 0.00 0.00 0.00 89 1021.7
20260901212703 64 178 0.0 1.7 0.00 0.00 0.00 89 1022.2
20260901212306 64 161 0.9 1.7 0.00 0.00 0.00 89 1021.5
20260901212202 64 142 0.9 1.7 0.00 0.00 0.00 89 1022.1
20260901211926 64 178 0.0 1.7 0.00 0.00 0.00 89 1022.1
20260901211803 64 151 0.9 1.7 0.00 0.00 0.00 89 1021.6
20260901211550 68 137 0.9 0.9 0.00 0.00 0.00 100 1022.8
20260901211304 64 159 0.9 1.7 0.00 0.00 0.00 88 1021.6
20260901211202 65 152 0.9 1.7 0.00 0.00 0.00 88 1022.1
20260901210803 65 173 0.9 1.7 0.00 0.00 0.00 88 1021.6
20260901210703 65 178 0.9 1.7 0.00 0.00 0.00 88 1022.1
20260901210303 65 167 0.9 0.9 0.00 0.00 0.00 87 1021.5
20260901210203 65 165 0.9 0.9 0.00 0.00 0.00 87 1022.1
20260901210049 68 0 0.0 0.9 0.00 0.00 0.00 100 1022.7
20260901205803 65 195 0.0 0.9 0.00 0.00 0.00 87 1021.5
20260901205702 65 223 0.9 0.9 0.00 0.00 0.00 87 1022.1
20260901205306 65 168 0.0 0.9 0.00 0.00 0.00 86 1021.5
20260901205204 65 1 0.0 0.9 0.00 0.00 0.00 86 1022.0
20260901204703 65 45 0.0 0.9 0.00 0.00 0.00 86 1022.0
20260901204545 68 0 0.0 0.9 0.00 0.00 0.00 100 1022.6
20260901204303 66 269 0.0 0.9 0.00 0.00 0.00 86 1021.5
20260901204205 66 206 0.0 0.9 0.00 0.00 0.00 86 1022.0
20260901203803 66 206 0.0 0.9 0.00 0.00 0.00 86 1021.3
20260901203703 66 223 0.0 0.9 0.00 0.00 0.00 86 1021.8
20260901203304 66 178 0.0 0.9 0.00 0.00 0.00 86 1021.2
20260901203203 66 178 0.0 1.7 0.00 0.00 0.00 86 1021.8
20260901203047 68 0 0.0 0.9 0.00 0.00 0.00 100 1022.5
20260901202706 66 135 0.0 1.7 0.00 0.00 0.00 86 1021.7
20260901202306 66 125 0.0 0.9 0.00 0.00 0.00 85 1021.0
20260901202204 66 178 0.0 0.9 0.00 0.00 0.00 85 1021.7
20260901201803 66 211 0.9 1.7 0.00 0.00 0.00 85 1021.1
20260901201702 66 206 0.9 1.7 0.00 0.00 0.00 85 1021.6
20260901201547 68 0 0.0 0.9 0.00 0.00 0.00 100 1022.4
20260901201303 66 242 0.9 1.7 0.00 0.00 0.00 85 1021.2
20260901201206 66 223 0.9 1.7 0.00 0.00 0.00 85 1021.6
20260901200926 67 213 0.0 0.9 0.00 0.00 0.00 84 1021.6
20260901200803 67 217 0.0 0.9 0.00 0.00 0.00 84 1021.0
20260901200303 67 205 0.0 0.9 0.00 0.00 0.00 84 1021.1
20260901200204 67 206 0.0 0.9 0.00 0.00 0.00 84 1021.6
20260901200047 68 0 0.0 0.9 0.00 0.00 0.00 100 1022.3
20260901195803 67 230 0.0 0.9 0.00 0.00 0.00 84 1021.0
20260901195702 67 269 0.0 0.9 0.00 0.00 0.00 84 1021.5
20260901195431 67 178 0.0 1.7 0.00 0.00 0.00 84 1021.3
20260901195305 67 57 0.0 0.9 0.00 0.00 0.00 84 1020.8
20260901194803 67 235 0.0 1.7 0.00 0.00 0.00 83 1020.7
20260901194702 67 269 0.0 1.7 0.00 0.00 0.00 83 1021.2
20260901194546 68 0 0.0 0.9 0.00 0.00 0.00 100 1021.9
20260901194303 67 252 0.9 1.7 0.00 0.00 0.00 83 1020.6
20260901194203 67 250 0.9 1.7 0.00 0.00 0.00 83 1021.1
20260901193803 68 227 0.9 1.7 0.00 0.00 0.00 83 1020.6
20260901193702 68 197 0.9 1.7 0.00 0.00 0.00 83 1021.0
20260901193303 68 229 0.9 1.7 0.00 0.00 0.00 82 1020.5
20260901193204 68 178 0.9 1.7 0.00 0.00 0.00 82 1021.0
20260901193048 68 248 0.9 1.7 0.00 0.00 0.00 100 1021.7
20260901192804 68 249 0.9 1.7 0.00 0.00 0.00 81 1020.5
20260901192703 68 241 0.9 1.7 0.00 0.00 0.00 81 1020.9
20260901192306 69 228 0.9 1.7 0.00 0.00 0.00 81 1020.5
20260901192205 69 223 0.9 1.7 0.00 0.00 0.00 81 1021.0
20260901191703 69 223 0.9 2.6 0.00 0.00 0.00 80 1021.1
20260901191556 69 235 0.9 3.5 0.00 0.00 0.00 100 1021.7
20260901191303 69 241 0.9 2.6 0.00 0.00 0.00 79 1020.5
20260901191203 69 0 0.9 2.6 0.00 0.00 0.00 79 1020.9
20260901190804 70 259 0.9 2.6 0.00 0.00 0.00 78 1020.4
20260901190702 70 231 0.9 1.7 0.00 0.00 0.00 78 1020.9
20260901190303 70 238 0.9 1.7 0.00 0.00 0.00 78 1020.4
20260901190204 70 269 0.9 1.7 0.00 0.00 0.00 77 1020.9
20260901190049 70 0 0.0 0.9 0.00 0.00 0.00 100 1021.6
20260901185804 70 221 0.9 1.7 0.00 0.00 0.00 77 1020.4
20260901185702 71 202 0.9 1.7 0.00 0.00 0.00 76 1020.8
20260901185306 71 242 0.9 1.7 0.00 0.00 0.00 76 1020.3
20260901185204 71 241 0.9 1.7 0.00 0.00 0.00 76 1020.8
20260901184927 71 45 0.0 1.7 0.00 0.00 0.00 75 1020.8
20260901184803 71 233 0.9 1.7 0.00 0.00 0.00 75 1020.2
20260901184548 70 221 0.9 2.6 0.00 0.00 0.00 100 1021.4
20260901184303 71 334 0.9 2.6 0.00 0.00 0.00 74 1020.3
20260901184204 71 269 0.9 2.6 0.00 0.00 0.00 74 1020.8
20260901183804 71 306 0.9 2.6 0.00 0.00 0.00 74 1020.3
20260901183702 71 269 0.9 2.6 0.00 0.00 0.00 74 1020.8
20260901183428 71 269 0.9 2.6 0.00 0.00 0.00 74 1020.8
20260901183048 71 291 0.0 1.7 0.00 0.00 0.00 100 1021.4
20260901182803 71 283 0.9 2.6 0.00 0.00 0.00 73 1020.2
20260901182702 71 329 0.9 2.6 0.00 0.00 0.00 73 1020.8
20260901182305 72 321 0.9 2.6 0.00 0.00 0.00 73 1020.2
20260901182204 72 63 1.7 2.6 0.00 0.00 0.00 73 1020.7
20260901181803 72 316 0.9 4.3 0.00 0.00 0.00 72 1020.3
20260901181702 72 314 0.9 2.6 0.00 0.00 0.00 72 1020.8
20260901181559 71 295 0.0 1.7 0.00 0.00 0.00 100 1021.5
20260901181303 72 248 0.9 2.6 0.00 0.00 0.00 72 1020.3
20260901181203 72 269 0.9 3.5 0.00 0.00 0.00 72 1020.8
20260901180803 72 257 0.9 2.6 0.00 0.00 0.00 72 1020.3
20260901180702 72 269 0.9 3.5 0.00 0.00 0.00 72 1020.8
20260901180204 72 223 1.7 3.5 0.00 0.00 0.00 71 1020.9
20260901180051 72 309 1.7 2.6 0.00 0.00 0.00 100 1021.6
20260901175803 73 310 1.7 7.0 0.00 0.00 0.00 70 1020.4
20260901175701 73 314 1.7 3.5 0.00 0.00 0.00 71 1020.8
20260901175431 73 303 1.7 6.1 0.00 0.00 0.00 70 1020.9
20260901175306 73 281 0.9 2.6 0.00 0.00 0.00 70 1020.4
20260901174803 73 320 2.6 7.8 0.00 0.00 0.00 70 1020.4
20260901174702 73 296 2.6 6.1 0.00 0.00 0.00 69 1020.8
20260901174548 73 325 1.7 3.5 0.00 0.00 0.00 100 1021.5
20260901174433 73 24 2.6 6.1 0.00 0.00 0.00 69 1020.9
20260901174304 73 273 1.7 7.0 0.00 0.00 0.00 70 1020.4
20260901173803 74 298 1.7 5.2 0.00 0.00 0.00 70 1020.2
20260901173702 74 337 1.7 3.5 0.00 0.00 0.00 70 1020.8
20260901173304 74 262 1.7 5.2 0.00 0.00 0.00 70 1020.1
20260901173205 74 259 1.7 4.3 0.00 0.00 0.00 70 1020.7
20260901173057 73 344 1.7 5.2 0.00 0.00 0.00 100 1021.4
20260901172803 74 312 2.6 5.2 0.00 0.00 0.00 69 1020.1
20260901172703 74 178 2.6 5.2 0.00 0.00 0.00 69 1020.7
20260901172305 74 318 2.6 5.2 0.00 0.00 0.00 69 1020.2
20260901172204 74 312 2.6 5.2 0.00 0.00 0.00 69 1020.7
20260901171932 74 28 1.7 7.8 0.00 0.00 0.00 68 1020.6
20260901171803 74 321 1.7 5.2 0.00 0.00 0.00 69 1020.1
20260901171556 73 292 3.5 7.0 0.00 0.00 0.00 100 1021.3
20260901171304 74 295 4.3 7.8 0.00 0.00 0.00 68 1020.1
20260901171204 74 1 3.5 7.8 0.00 0.00 0.00 68 1020.7
20260901170803 74 320 2.6 7.8 0.00 0.00 0.00 67 1020.0
20260901170702 74 341 2.6 7.8 0.00 0.00 0.00 67 1020.6
20260901170303 75 335 3.5 7.8 0.00 0.00 0.00 66 1020.0
20260901170204 75 344 3.5 7.8 0.00 0.00 0.00 66 1020.5
20260901170046 74 321 4.3 7.0 0.00 0.00 0.00 100 1021.3
20260901165804 75 316 1.7 7.0 0.00 0.00 0.00 66 1019.9
20260901165702 75 237 1.7 5.2 0.00 0.00 0.00 67 1020.5
20260901165306 75 335 1.7 5.2 0.00 0.00 0.00 66 1019.9
20260901165204 75 76 2.6 6.1 0.00 0.00 0.00 65 1020.5
20260901164803 75 251 2.6 7.0 0.00 0.00 0.00 65 1019.9
20260901164703 75 178 2.6 6.1 0.00 0.00 0.00 65 1020.5
20260901164548 75 309 3.5 5.2 0.00 0.00 0.00 100 1021.1
20260901164303 76 333 2.6 6.1 0.00 0.00 0.00 65 1019.8
20260901164203 76 341 2.6 5.2 0.00 0.00 0.00 65 1020.4
20260901163804 76 288 1.7 7.0 0.00 0.00 0.00 66 1019.8
20260901163702 76 241 0.9 4.3 0.00 0.00 0.00 66 1020.4
20260901163303 76 267 1.7 4.3 0.00 0.00 0.00 66 1019.8
20260901163204 76 302 1.7 4.3 0.00 0.00 0.00 66 1020.3
20260901163043 75 291 2.6 4.3 0.00 0.00 0.00 100 1021.1
20260901162926 76 338 1.7 4.3 0.00 0.00 0.00 65 1020.3
20260901162804 76 302 1.7 4.3 0.00 0.00 0.00 65 1019.8
20260901162306 76 243 1.7 6.1 0.00 0.00 0.00 65 1019.7
20260901162204 76 247 1.7 5.2 0.00 0.00 0.00 66 1020.3
20260901161803 76 275 0.9 4.3 0.00 0.00 0.00 66 1019.8
20260901161708 76 348 1.7 4.3 0.00 0.00 0.00 66 1020.3
20260901161703 76 28 0.9 5.2 0.00 0.00 0.00 65 1020.4
20260901161607 75 221 1.7 3.5 0.00 0.00 0.00 100 1021.1
20260901161303 76 329 2.6 7.0 0.00 0.00 0.00 66 1019.8
20260901160803 76 316 1.7 5.2 0.00 0.00 0.00 66 1019.8
20260901160703 76 296 2.6 4.3 0.00 0.00 0.00 66 1020.5
20260901160429 76 324 2.6 6.1 0.00 0.00 0.00 67 1020.5
20260901160304 76 299 2.6 6.1 0.00 0.00 0.00 67 1019.9
20260901160044 75 319 1.7 4.3 0.00 0.00 0.00 100 1021.2
20260901155804 75 323 1.7 7.0 0.00 0.00 0.00 67 1019.9
20260901155702 75 230 1.7 7.8 0.00 0.00 0.00 67 1020.5
20260901155306 75 304 1.7 6.1 0.00 0.00 0.00 67 1019.9
20260901155204 75 35 1.7 7.8 0.00 0.00 0.00 67 1020.5
20260901154927 75 313 2.6 5.2 0.00 0.00 0.00 67 1020.4
20260901154803 75 329 2.6 7.8 0.00 0.00 0.00 67 1019.9
20260901154553 75 309 1.7 6.1 0.00 0.00 0.00 100 1021.2
20260901154303 75 301 3.5 7.8 0.00 0.00 0.00 67 1019.9
20260901154203 75 303 3.5 6.1 0.00 0.00 0.00 67 1020.6
20260901153803 75 285 3.5 7.0 0.00 0.00 0.00 67 1019.9
20260901153702 75 310 3.5 6.1 0.00 0.00 0.00 68 1020.5
20260901153303 75 319 2.6 7.8 0.00 0.00 0.00 68 1020.0
20260901153203 75 323 3.5 6.1 0.00 0.00 0.00 68 1020.5
20260901153048 75 328 2.6 4.3 0.00 0.00 0.00 100 1021.3
20260901152803 75 322 2.6 7.0 0.00 0.00 0.00 68 1020.0
20260901152702 75 306 4.3 5.2 0.00 0.00 0.00 68 1020.6
20260901152305 75 340 2.6 6.1 0.00 0.00 0.00 68 1020.1
20260901152204 75 307 2.6 8.7 0.00 0.00 0.00 68 1020.6
20260901151803 75 302 2.6 8.7 0.00 0.00 0.00 68 1020.0
20260901151702 75 341 2.6 9.6 0.00 0.00 0.00 68 1020.6
20260901151544 74 265 1.7 4.3 0.00 0.00 0.00 100 1021.3
20260901151303 75 329 2.6 10.4 0.00 0.00 0.00 68 1020.0
20260901151204 75 336 3.5 9.6 0.00 0.00 0.00 68 1020.5
20260901150803 75 299 1.7 7.0 0.00 0.00 0.00 68 1020.0
20260901150703 75 354 1.7 8.7 0.00 0.00 0.00 68 1020.5
20260901150303 75 297 2.6 8.7 0.00 0.00 0.00 69 1019.9
20260901150203 75 320 2.6 9.6 0.00 0.00 0.00 69 1020.5
20260901150050 74 338 3.5 7.0 0.00 0.00 0.00 100 1021.1
20260901145803 74 284 3.5 10.4 0.00 0.00 0.00 69 1019.9
20260901145702 74 213 3.5 9.6 0.00 0.00 0.00 69 1020.5
20260901145306 74 310 2.6 7.8 0.00 0.00 0.00 69 1019.9
20260901145204 74 300 3.5 7.8 0.00 0.00 0.00 69 1020.5
20260901145145 75 312 4.3 7.8 0.00 0.00 0.00 69 1020.5
20260901144803 75 305 4.3 8.7 0.00 0.00 0.00 69 1020.1
20260901144551 74 339 3.5 7.0 0.00 0.00 0.00 100 1021.2
20260901144207 75 317 3.5 7.8 0.00 0.00 0.00 69 1020.5
20260901143803 75 330 3.5 7.8 0.00 0.00 0.00 70 1019.9
20260901143702 75 310 2.6 8.7 0.00 0.00 0.00 70 1020.5
20260901143201 75 316 5.2 8.7 0.00 0.00 0.00 69 1020.5
20260901143049 74 9 4.3 8.7 0.00 0.00 0.00 100 1021.2
20260901142804 75 284 4.3 10.4 0.00 0.00 0.00 70 1019.9
20260901142702 75 274 3.5 7.8 0.00 0.00 0.00 70 1020.4
20260901142305 75 289 4.3 7.8 0.00 0.00 0.00 70 1019.9
20260901142202 75 250 3.5 8.7 0.00 0.00 0.00 70 1020.5
20260901141803 75 315 5.2 11.3 0.00 0.00 0.00 69 1019.9
20260901141702 75 305 4.3 9.6 0.00 0.00 0.00 70 1020.4
20260901141548 75 307 3.5 7.8 0.00 0.00 0.00 100 1021.1
20260901141303 75 296 4.3 10.4 0.00 0.00 0.00 69 1019.8
20260901141202 76 330 5.2 9.6 0.00 0.00 0.00 70 1020.4
20260901140803 76 296 2.6 8.7 0.00 0.00 0.00 69 1019.9
20260901140701 76 354 3.5 10.4 0.00 0.00 0.00 70 1020.4
20260901140303 76 320 2.6 10.4 0.00 0.00 0.00 70 1019.8
20260901140200 76 28 3.5 10.4 0.00 0.00 0.00 69 1020.3
20260901140046 75 332 1.7 4.3 0.00 0.00 0.00 100 1021.1
20260901135701 76 312 3.5 6.1 0.00 0.00 0.00 70 1020.3
20260901135305 76 314 2.6 5.2 0.00 0.00 0.00 71 1019.8
20260901135158 76 331 1.7 5.2 0.00 0.00 0.00 71 1020.3
20260901134647 75 223 2.6 6.1 0.00 0.00 0.00 70 1020.3
20260901134544 75 304 2.6 7.8 0.00 0.00 0.00 100 1021.0
20260901134408 76 323 5.2 6.1 0.00 0.00 0.00 70 1020.4
20260901133803 76 321 4.3 7.8 0.00 0.00 0.00 70 1019.8
20260901133631 76 330 3.5 6.1 0.00 0.00 0.00 70 1020.3
20260901133304 76 276 1.7 7.0 0.00 0.00 0.00 70 1019.8
20260901133132 76 303 2.6 6.1 0.00 0.00 0.00 69 1020.3
20260901133042 75 306 4.3 7.0 0.00 0.00 0.00 100 1021.1
20260901132804 76 313 2.6 10.4 0.00 0.00 0.00 70 1019.8
20260901132632 76 340 2.6 10.4 0.00 0.00 0.00 70 1020.3
20260901132306 76 334 2.6 7.8 0.00 0.00 0.00 70 1019.8
20260901132108 76 336 3.5 10.4 0.00 0.00 0.00 70 1020.3
20260901131603 76 310 1.7 6.1 0.00 0.00 0.00 70 1020.2
20260901131548 75 93 1.7 7.0 0.00 0.00 0.00 100 1020.9
20260901131303 76 329 1.7 4.3 0.00 0.00 0.00 70 1019.7
20260901131103 76 1 1.7 6.1 0.00 0.00 0.00 70 1020.2
20260901130826 76 250 2.6 6.1 0.00 0.00 0.00 71 1020.1
20260901130803 76 311 3.5 8.7 0.00 0.00 0.00 70 1019.6
20260901130304 76 295 2.6 7.0 0.00 0.00 0.00 70 1019.7
20260901130056 75 338 2.6 4.3 0.00 0.00 0.00 100 1021.0
20260901125803 76 280 1.7 6.1 0.00 0.00 0.00 70 1019.7
20260901125601 76 314 3.5 6.1 0.00 0.00 0.00 70 1020.2
20260901125308 76 326 2.6 7.0 0.00 0.00 0.00 70 1019.6
20260901125103 76 306 1.7 6.1 0.00 0.00 0.00 70 1020.2
20260901124803 76 273 1.7 5.2 0.00 0.00 0.00 70 1019.7
20260901124603 76 323 2.6 6.1 0.00 0.00 0.00 70 1020.2
20260901124550 75 334 1.7 3.5 0.00 0.00 0.00 100 1020.9
20260901124303 76 350 2.6 7.0 0.00 0.00 0.00 71 1019.7
20260901124103 76 275 3.5 6.1 0.00 0.00 0.00 70 1020.2
20260901123803 75 283 1.7 2.6 0.00 0.00 0.00 70 1019.8
20260901123602 75 241 1.7 3.5 0.00 0.00 0.00 69 1020.4
20260901123303 75 235 1.7 4.3 0.00 0.00 0.00 69 1019.9
20260901123103 75 348 2.6 3.5 0.00 0.00 0.00 71 1020.4
20260901123050 75 338 1.7 5.2 0.00 0.00 0.00 100 1021.0
20260901122804 75 289 1.7 5.2 0.00 0.00 0.00 71 1019.9
20260901122602 75 259 2.6 6.1 0.00 0.00 0.00 71 1020.5
20260901122306 75 315 1.7 7.0 0.00 0.00 0.00 70 1019.9
20260901122103 75 344 2.6 6.1 0.00 0.00 0.00 70 1020.4
20260901121803 75 316 0.9 4.3 0.00 0.00 0.00 72 1019.8
20260901121602 75 234 0.9 2.6 0.00 0.00 0.00 71 1020.3
20260901121549 74 319 0.9 3.5 0.00 0.00 0.00 100 1021.0
20260901121328 74 320 1.7 2.6 0.00 0.00 0.00 73 1020.4
20260901121304 74 314 1.7 2.6 0.00 0.00 0.00 71 1019.8
20260901120804 74 332 1.7 2.6 0.00 0.00 0.00 73 1019.9
20260901120602 74 1 1.7 4.3 0.00 0.00 0.00 74 1020.3
20260901120304 74 359 1.7 5.2 0.00 0.00 0.00 72 1019.9
20260901120045 73 309 0.9 3.5 0.00 0.00 0.00 100 1021.1
20260901115602 73 343 1.7 3.5 0.00 0.00 0.00 73 1020.7
20260901115328 73 178 1.7 5.2 0.00 0.00 0.00 73 1020.6
20260901115306 73 177 1.7 2.6 0.00 0.00 0.00 71 1020.0
20260901114803 73 254 1.7 5.2 0.00 0.00 0.00 72 1020.1
20260901114608 73 319 1.7 4.3 0.00 0.00 0.00 100 1021.3
20260901114602 73 178 0.9 5.2 0.00 0.00 0.00 72 1020.6
20260901114304 73 241 0.9 2.6 0.00 0.00 0.00 72 1020.2
20260901114101 73 161 1.7 3.5 0.00 0.00 0.00 73 1020.7
20260901113803 73 7 1.7 2.6 0.00 0.00 0.00 73 1020.2
20260901113602 73 56 1.7 4.3 0.00 0.00 0.00 73 1020.9
20260901113303 73 309 2.6 4.3 0.00 0.00 0.00 74 1020.3
20260901113102 73 351 1.7 4.3 0.00 0.00 0.00 75 1020.9
20260901113044 72 255 0.9 2.6 0.00 0.00 0.00 100 1021.4
20260901112803 72 17 1.7 2.6 0.00 0.00 0.00 74 1020.3
20260901112602 72 117 1.7 3.5 0.00 0.00 0.00 73 1020.9
20260901112102 73 286 1.7 2.6 0.00 0.00 0.00 75 1021.0
20260901111803 73 330 1.7 2.6 0.00 0.00 0.00 75 1020.5
20260901111603 72 37 0.9 5.2 0.00 0.00 0.00 77 1021.1
20260901111547 72 51 0.9 3.5 0.00 0.00 0.00 100 1021.6
20260901111303 72 42 1.7 5.2 0.00 0.00 0.00 77 1020.6
20260901111101 72 28 0.9 5.2 0.00 0.00 0.00 76 1021.1
20260901110804 72 221 0.9 2.6 0.00 0.00 0.00 78 1020.8
20260901110602 71 63 1.7 3.5 0.00 0.00 0.00 77 1021.4
20260901110304 71 350 1.7 4.3 0.00 0.00 0.00 77 1020.9
20260901110103 71 321 2.6 5.2 0.00 0.00 0.00 77 1021.5
20260901110046 71 228 1.7 2.6 0.00 0.00 0.00 100 1022.0
20260901105603 71 321 1.7 5.2 0.00 0.00 0.00 78 1021.5
20260901105305 71 32 1.7 2.6 0.00 0.00 0.00 78 1021.1
20260901105103 70 234 0.9 3.5 0.00 0.00 0.00 79 1021.6
20260901104804 70 303 1.7 4.3 0.00 0.00 0.00 79 1021.1
20260901104601 70 296 1.7 2.6 0.00 0.00 0.00 81 1021.6
20260901104543 69 48 0.9 2.6 0.00 0.00 0.00 100 1022.2
20260901104304 70 238 1.7 2.6 0.00 0.00 0.00 80 1021.1
20260901104102 70 310 1.7 3.5 0.00 0.00 0.00 81 1021.6
20260901103803 69 265 0.9 2.6 0.00 0.00 0.00 81 1021.2
20260901103602 69 296 0.9 3.5 0.00 0.00 0.00 82 1021.7
20260901103330 69 310 1.7 2.6 0.00 0.00 0.00 82 1021.8
20260901103303 69 167 1.7 2.6 0.00 0.00 0.00 82 1021.3
20260901103043 68 242 1.7 1.7 0.00 0.00 0.00 100 1022.5
20260901102804 69 334 1.7 2.6 0.00 0.00 0.00 83 1021.4
20260901102602 69 217 1.7 2.6 0.00 0.00 0.00 83 1021.9
20260901102306 68 14 0.9 2.6 0.00 0.00 0.00 83 1021.5
20260901102101 68 314 0.9 2.6 0.00 0.00 0.00 84 1021.8
20260901101827 68 117 1.7 2.6 0.00 0.00 0.00 85 1021.8
20260901101804 68 1 0.9 2.6 0.00 0.00 0.00 84 1021.4
20260901101543 67 68 0.9 2.6 0.00 0.00 0.00 100 1022.5
20260901101321 67 45 1.7 2.6 0.00 0.00 0.00 86 1021.9
20260901101303 67 320 1.7 2.6 0.00 0.00 0.00 86 1021.5
20260901100803 67 67 0.9 2.6 0.00 0.00 0.00 86 1021.5
20260901100603 67 59 0.9 2.6 0.00 0.00 0.00 86 1021.8
20260901100303 66 47 0.9 2.6 0.00 0.00 0.00 86 1021.4
20260901100044 66 41 0.9 2.6 0.00 0.00 0.00 100 1022.6
20260901095602 66 1 1.7 3.5 0.00 0.00 0.00 89 1021.9
20260901095323 65 42 1.7 3.5 0.00 0.00 0.00 91 1021.9
20260901095306 65 63 1.7 2.6 0.00 0.00 0.00 90 1021.5
20260901094803 65 157 0.9 2.6 0.00 0.00 0.00 91 1021.5
20260901094603 65 66 0.9 2.6 0.00 0.00 0.00 92 1021.9
20260901094549 65 30 0.9 2.6 0.00 0.00 0.00 100 1022.6
20260901094327 64 13 1.7 2.6 0.00 0.00 0.00 94 1022.0
20260901094303 64 52 1.7 2.6 0.00 0.00 0.00 93 1021.5
20260901093804 63 145 0.9 1.7 0.00 0.00 0.00 94 1021.5
20260901093602 63 178 0.0 1.7 0.00 0.00 0.00 95 1021.9
20260901093303 63 116 0.9 1.7 0.00 0.00 0.00 94 1021.6
20260901093101 63 206 0.9 1.7 0.00 0.00 0.00 94 1022.0
20260901093046 65 178 0.9 1.7 0.00 0.00 0.00 100 1022.7